Change the Weather History Date:

Wednesday, May 8, 2013

  Actual Average Record
Temperature  
Mean Temperature 42 °F 39 °F  
Max Temperature 48 °F 44 °F 62 °F (1981)
Min Temperature 35 °F 34 °F 26 °F (2005)
Degree Days  
Heating Degree Days 23 26  
Month to date heating degree days 229 215  
Since 1 July heating degree days 8625 8448  
Cooling Degree Days 0    
Month to date cooling degree days 0  
Year to date cooling degree days 0  
Moisture  
Dew Point 34 °F    
Average Humidity 0    
Maximum Humidity 0    
Minimum Humidity 0    
Precipitation  
Precipitation 0.00 in 0.07 in 1.16 in (1982)
Month to date precipitation 0.18 0.60  
Year to date precipitation 11.83 11.86  
Snow  
Snow 0.00 in 0.00 in 1.70 in (1958)
Month to date snowfall T 0.6  
Since 1 July snowfall 64.2 72.4  
Snow Depth 0.00 in    
Sea Level Pressure  
Sea Level Pressure 30.06 in    
Wind  
Wind Speed 13 mph (NE)    
Max Wind Speed 25 mph    
Max Gust Speed 30 mph    
Visibility 10 miles    
Events      
T = Trace of Precipitation, MM = Missing Value Source: NWS Daily Summary

Daily Weather History Graph

Daily Weather History Graph

Search for Another Location

Airport or City:

Trip Planner

Search our weather history database for the weather conditions in past years. The results will help you decide how hot, cold, wet, or windy it might be!

Date:

Astronomy

May. 08, 2013 Rise Set
Actual Time 6:54 AM AKDT 10:41 PM AKDT
Civil Twilight 6:08 AM AKDT 11:27 PM AKDT
Nautical Twilight 5:03 AM AKDT 12:33 AM AKDT
Astronomical Twilight 3:19 AM AKDT 2:14 AM AKDT
Moon 6:22 AM AKDT (5/8) 9:44 PM AKDT (5/8)
Length of Visible Light 17h 19m
Length of Day
15h 47m
Waning Crescent, 1% of the Moon is Illuminated
May 8
Waning Crescent
May 9
New
May 17
First Quarter
May 24
Full
May 31
Last Quarter

Hourly Weather History & Observations

Time (AKDT) Temp. Windchill Dew Point Humidity Pressure Visibility Wind Dir Wind Speed Gust Speed Precip Events Conditions
12:53 AM 39.9 °F 35.8 °F 30.9 °F 70% 30.14 in 10.0 mi NNE 5.8 mph - N/A   Overcast
1:53 AM 37.9 °F 32.1 °F 33.1 °F 83% 30.13 in 10.0 mi NNE 8.1 mph - N/A   Overcast
2:53 AM 37.0 °F 29.8 °F 32.0 °F 82% 30.12 in 10.0 mi NNE 10.4 mph - N/A   Overcast
3:53 AM 35.1 °F 25.2 °F 30.9 °F 85% 30.10 in 10.0 mi North 16.1 mph - N/A   Mostly Cloudy
4:53 AM 35.1 °F 24.1 °F 32.0 °F 89% 30.09 in 10.0 mi North 19.6 mph 24.2 mph N/A   Overcast
5:53 AM 36.0 °F 25.3 °F 32.0 °F 86% 30.08 in 10.0 mi North 19.6 mph 25.3 mph N/A   Overcast
6:53 AM 36.0 °F 26.0 °F 32.0 °F 86% 30.07 in 10.0 mi North 17.3 mph - N/A   Overcast
7:53 AM 37.0 °F 27.0 °F 32.0 °F 82% 30.07 in 10.0 mi NNE 18.4 mph - N/A   Overcast
8:53 AM 37.0 °F 26.7 °F 32.0 °F 82% 30.07 in 10.0 mi NNE 19.6 mph 28.8 mph N/A   Overcast
9:53 AM 39.9 °F 29.7 °F 34.0 °F 79% 30.07 in 10.0 mi NNE 23.0 mph 29.9 mph N/A   Overcast
10:53 AM 41.0 °F 31.4 °F 33.1 °F 73% 30.06 in 10.0 mi NNE 21.9 mph 29.9 mph N/A   Overcast
11:53 AM 44.1 °F 36.2 °F 35.1 °F 71% 30.07 in 10.0 mi NNE 18.4 mph 25.3 mph N/A   Mostly Cloudy
12:53 PM 46.0 °F 39.6 °F 34.0 °F 63% 30.06 in 10.0 mi North 15.0 mph - N/A   Mostly Cloudy
1:53 PM 45.0 °F 38.2 °F 35.1 °F 68% 30.06 in 10.0 mi NNE 15.0 mph - N/A   Overcast
2:53 PM 46.0 °F 41.9 °F 36.0 °F 68% 30.06 in 10.0 mi NE 8.1 mph - N/A   Overcast
3:00 PM 46.4 °F 42.9 °F 35.6 °F 66% 30.06 in 10.0 mi NE 6.9 mph - N/A   Overcast
3:53 PM 46.0 °F 43.9 °F 36.0 °F 68% 30.06 in 10.0 mi ENE 4.6 mph - N/A   Overcast
4:05 PM 46.4 °F 42.4 °F 35.6 °F 66% 30.05 in 10.0 mi ENE 8.1 mph - N/A   Overcast
4:53 PM 46.0 °F 43.1 °F 36.0 °F 68% 30.05 in 10.0 mi East 5.8 mph - N/A   Overcast
5:33 PM 44.6 °F 37.4 °F 35.6 °F 71% 30.03 in 10.0 mi East 16.1 mph - N/A   Mostly Cloudy
5:53 PM 45.0 °F 37.6 °F 36.0 °F 71% 30.04 in 10.0 mi East 17.3 mph - N/A   Overcast
6:12 PM 44.6 °F 37.8 °F 35.6 °F 71% 30.03 in 10.0 mi East 15.0 mph 25.3 mph N/A   Overcast
6:53 PM 44.1 °F 36.5 °F 35.1 °F 71% 30.04 in 10.0 mi East 17.3 mph 24.2 mph N/A   Overcast
7:53 PM 43.0 °F 35.7 °F 35.1 °F 74% 30.03 in 10.0 mi East 15.0 mph 21.9 mph N/A   Overcast
8:53 PM 44.1 °F 39.0 °F 33.1 °F 65% 30.03 in 10.0 mi East 9.2 mph - N/A   Overcast
9:21 PM 42.8 °F 37.5 °F 33.8 °F 70% 30.02 in 10.0 mi East 9.2 mph - N/A   Overcast
9:53 PM 42.1 °F 36.1 °F 34.0 °F 73% 30.02 in 10.0 mi East 10.4 mph - N/A   Mostly Cloudy
10:22 PM 42.8 °F 38.0 °F 33.8 °F 70% 30.02 in 10.0 mi East 8.1 mph - N/A   Mostly Cloudy
10:53 PM 43.0 °F 37.2 °F 33.1 °F 68% 30.03 in 10.0 mi ESE 10.4 mph - N/A   Overcast
11:53 PM 42.1 °F 34.9 °F 33.1 °F 70% 30.03 in 10.0 mi East 13.8 mph - N/A   Overcast